FW2343 Weather Reports


Display with metric or nautical units.
time (UTC)temp
F
wind
direction
speed
MPH
gust
MPH
rain 1hr
in
rain 24hr
in
rain mn
in
humidity
%
barometer
mb
20260510093212 67 16 8.0 15.0 0.00 0.08 0.00 69 1009.8
20260510092706 66 53 7.0 12.0 0.00 0.08 0.00 69 1009.9
20260510092213 66 2 7.0 12.0 0.00 0.08 0.00 68 1009.9
20260510091711 66 53 4.0 11.0 0.00 0.08 0.00 68 1009.9
20260510091218 67 28 6.0 13.0 0.00 0.08 0.00 68 1009.9
20260510090716 66 7 2.0 13.0 0.00 0.08 0.00 70 1009.9
20260510090234 66 23 5.0 6.0 0.00 0.08 0.00 69 1009.9
20260510085711 66 119 2.0 6.0 0.00 0.08 0.00 73 1009.9
20260510085214 65 163 2.0 6.0 0.00 0.08 0.00 73 1009.8
20260510084712 65 154 1.0 6.0 0.00 0.08 0.00 73 1009.8
20260510084208 65 154 3.0 6.0 0.00 0.08 0.00 75 1009.8
20260510083719 64 142 1.0 6.0 0.00 0.08 0.00 76 1009.7
20260510083208 64 165 2.0 6.0 0.00 0.08 0.00 75 1009.9
20260510082707 64 170 3.0 6.0 0.00 0.08 0.00 76 1009.9
20260510082211 64 153 2.0 9.0 0.00 0.08 0.00 76 1009.9
20260510081705 64 71 1.0 9.0 0.00 0.08 0.00 77 1010.0
20260510081218 63 22 1.0 3.0 0.00 0.08 0.00 78 1009.9
20260510080717 63 344 0.0 3.0 0.00 0.08 0.00 80 1009.8
20260510075714 62 0 0.0 0.0 0.00 0.08 0.00 80 1010.0
20260510075212 62 0 0.0 0.0 0.00 0.08 0.00 81 1010.0
20260510074719 62 0 0.0 0.0 0.00 0.08 0.00 80 1009.9
20260510073719 61 0 0.0 0.0 0.00 0.08 0.00 83 1009.9
20260510073216 61 0 0.0 0.0 0.00 0.08 0.00 85 1010.0
20260510072706 60 0 0.0 0.0 0.00 0.08 0.00 86 1010.0
20260510072206 60 0 0.0 0.0 0.00 0.08 0.00 86 1010.0
20260510071713 59 0 0.0 0.0 0.00 0.08 0.00 88 1010.1
20260510071210 58 0 0.0 0.0 0.00 0.08 0.00 89 1010.1
20260510070714 58 0 0.0 3.0 0.00 0.08 0.00 91 1009.9
20260510065711 56 216 0.0 3.0 0.00 0.08 0.00 92 1010.0
20260510065216 56 210 0.0 0.0 0.00 0.08 0.00 92 1009.9
20260510064710 56 0 0.0 1.0 0.00 0.08 0.00 92 1009.9
20260510064216 55 0 0.0 1.0 0.00 0.08 0.00 93 1009.9
20260510063712 55 146 0.0 0.0 0.00 0.08 0.00 93 1010.0
20260510063208 55 0 0.0 1.0 0.00 0.08 0.00 94 1010.0
20260510062714 54 0 0.0 1.0 0.00 0.08 0.00 94 1010.0
20260510062214 54 146 0.0 1.0 0.00 0.08 0.00 94 1010.1
20260510061712 54 0 0.0 1.0 0.00 0.08 0.00 94 1010.1
20260510060706 54 120 0.0 2.0 0.00 0.08 0.00 94 1010.1
20260510060238 54 0 0.0 2.0 0.00 0.08 0.00 95 1009.9
20260510055707 53 164 0.0 2.0 0.00 0.08 0.00 96 1010.1
20260510055211 53 118 1.0 2.0 0.00 0.08 0.00 95 1010.2
20260510054713 53 0 0.0 0.0 0.00 0.08 0.00 95 1010.1
20260510054220 53 0 0.0 2.0 0.00 0.08 0.00 96 1010.2
20260510053715 52 0 0.0 2.0 0.00 0.08 0.00 96 1010.1
20260510052708 51 150 1.0 0.0 0.00 0.08 0.00 96 1010.1
20260510052206 51 0 0.0 0.0 0.00 0.08 0.00 95 1010.1
20260510051211 51 0 0.0 2.0 0.00 0.08 0.00 95 1010.1
20260510050705 51 164 0.0 2.0 0.00 0.08 0.00 95 1010.1
20260510050211 50 165 0.0 0.0 0.00 0.08 0.00 95 1010.0
20260510044717 51 0 0.0 0.0 0.00 0.08 0.00 95 1010.1
20260510044219 51 0 0.0 2.0 0.00 0.08 0.00 95 1010.1
20260510043209 51 215 1.0 2.0 0.00 0.08 0.00 95 1010.1
20260510042720 51 217 0.0 0.0 0.00 0.08 0.00 95 1010.2
20260510042215 51 0 0.0 0.0 0.00 0.08 0.00 95 1010.2
20260510041717 51 0 0.0 1.0 0.00 0.08 0.00 95 1010.2
20260510040705 51 104 0.0 2.0 0.00 0.08 0.00 94 1010.3
20260510040212 52 126 0.0 3.0 0.00 0.08 0.00 94 1010.4
20260510035716 52 172 2.0 3.0 0.00 0.08 0.00 95 1010.4
20260510035215 52 153 0.0 3.0 0.00 0.08 0.00 95 1010.4
20260510034719 52 209 0.0 3.0 0.00 0.08 0.00 95 1010.4
20260510033709 52 187 1.0 2.0 0.00 0.08 0.00 95 1010.5
20260510032713 52 310 0.0 2.0 0.00 0.08 0.00 94 1010.4
20260510032216 53 11 1.0 2.0 0.00 0.08 0.00 94 1010.4
20260510031714 53 348 0.0 2.0 0.00 0.08 0.00 94 1010.4
20260510031207 53 277 0.0 2.0 0.00 0.08 0.00 94 1010.5
20260510030711 53 163 0.0 2.0 0.00 0.08 0.00 94 1010.5
20260510025707 53 0 0.0 2.0 0.00 0.08 0.00 94 1010.6
20260510025205 53 236 0.0 2.0 0.00 0.08 0.00 94 1010.6
20260510024710 53 244 0.0 3.0 0.00 0.08 0.00 94 1010.7
20260510024214 53 219 1.0 3.0 0.00 0.08 0.00 94 1010.6
20260510023214 54 187 0.0 5.0 0.00 0.08 0.00 93 1010.6
20260510022207 54 43 2.0 4.0 0.00 0.08 0.00 93 1010.5
20260510021712 54 57 2.0 6.0 0.00 0.08 0.00 93 1010.5
20260510021219 55 358 3.0 6.0 0.00 0.08 0.00 94 1010.5
20260510020719 55 22 3.0 4.0 0.00 0.08 0.00 94 1010.4
20260510020212 55 45 1.0 4.0 0.00 0.08 0.00 93 1010.5
20260510015218 55 355 0.0 0.0 0.00 0.08 0.00 93 1010.6
20260510014714 55 0 0.0 2.0 0.00 0.08 0.00 93 1010.7
20260510013709 55 341 0.0 2.0 0.00 0.08 0.00 93 1010.9
20260510013208 55 0 0.0 1.0 0.00 0.08 0.00 93 1011.0
20260510012714 55 260 0.0 1.0 0.00 0.08 0.00 93 1011.1
20260510011705 55 0 0.0 4.0 0.00 0.08 0.00 93 1011.2
20260510011210 55 355 1.0 5.0 0.00 0.08 0.00 93 1011.2
20260510010737 56 21 2.0 6.0 0.00 0.08 0.00 93 1011.1
20260510010214 56 22 3.0 7.0 0.00 0.08 0.00 93 1011.1
20260510005208 56 21 5.0 7.0 0.00 0.08 0.00 93 1011.0
20260510004213 56 347 2.0 5.0 0.00 0.08 0.00 93 1011.2
20260510003714 56 8 3.0 5.0 0.00 0.08 0.00 93 1011.3
20260510003206 56 358 2.0 5.0 0.00 0.08 0.00 93 1011.4
20260510002711 56 29 3.0 7.0 0.00 0.08 0.00 93 1011.3
20260510002220 56 25 3.0 7.0 0.00 0.08 0.00 92 1011.3
20260510001710 56 39 4.0 8.0 0.00 0.08 0.00 92 1011.2
20260510000713 56 39 4.0 9.0 0.00 0.08 0.00 92 1011.1
20260510000215 56 60 4.0 9.0 0.00 0.08 0.00 92 1011.2
20260509235208 56 37 5.0 9.0 0.00 0.08 0.00 93 1011.1
20260509234718 56 39 5.0 9.0 0.00 0.08 0.00 93 1011.3
20260509234210 56 7 5.0 9.0 0.00 0.08 0.00 93 1011.4
20260509233711 56 47 6.0 10.0 0.00 0.08 0.00 93 1011.5
20260509232719 56 22 7.0 11.0 0.00 0.08 0.00 93 1012.0
20260509232207 56 19 7.0 11.0 0.00 0.08 0.00 93 1012.0
20260509231706 56 28 7.0 11.0 0.00 0.08 0.00 93 1011.9
20260509231218 56 9 7.0 10.0 0.00 0.08 0.00 93 1012.0
20260509230710 57 28 6.0 10.0 0.00 0.08 0.00 93 1012.2
20260509230209 57 23 7.0 10.0 0.00 0.08 0.00 93 1012.3
20260509225708 57 22 5.0 10.0 0.01 0.08 0.00 93 1012.2
20260509225209 57 45 4.0 10.0 0.01 0.08 0.00 93 1012.2
20260509224706 57 30 6.0 9.0 0.02 0.08 0.00 93 1012.2
20260509224211 57 5 5.0 10.0 0.02 0.08 0.00 93 1012.2
20260509223717 57 43 5.0 10.0 0.02 0.08 0.00 93 1012.1
20260509223215 57 23 6.0 9.0 0.03 0.08 0.00 93 1012.0
20260509222716 57 18 6.0 9.0 0.04 0.08 0.00 93 1012.0
20260509222207 57 19 5.0 8.0 0.04 0.08 0.00 93 1012.0
20260509221709 57 29 5.0 8.0 0.05 0.08 0.00 93 1012.0
20260509221206 57 2 6.0 8.0 0.05 0.08 0.00 93 1012.2
20260509220718 57 9 5.0 7.0 0.05 0.08 0.00 93 1012.0
20260509215719 58 25 4.0 9.0 0.06 0.07 0.07 92 1012.0
20260509215215 58 15 6.0 9.0 0.06 0.07 0.07 92 1012.1
20260509214713 58 30 4.0 8.0 0.06 0.06 0.06 92 1012.2
20260509214215 58 18 5.0 7.0 0.05 0.06 0.06 91 1012.2
20260509213711 58 21 4.0 7.0 0.05 0.05 0.05 91 1012.2
20260509213209 58 358 4.0 7.0 0.04 0.04 0.04 91 1012.2
20260509212716 58 16 3.0 6.0 0.04 0.04 0.04 91 1012.2
20260509212215 58 22 4.0 9.0 0.04 0.04 0.04 91 1012.1
20260509211714 58 16 4.0 9.0 0.03 0.03 0.03 91 1012.1
20260509211213 58 15 5.0 9.0 0.03 0.03 0.03 90 1012.0
20260509210713 58 14 1.0 5.0 0.02 0.02 0.02 89 1012.0
20260509210216 58 28 1.0 5.0 0.02 0.02 0.02 88 1011.9
20260509205706 58 5 2.0 5.0 0.02 0.02 0.02 88 1011.9
20260509205212 58 11 3.0 7.0 0.02 0.02 0.02 88 1011.9
20260509204214 59 49 4.0 9.0 0.01 0.01 0.01 86 1011.7
20260509203709 59 37 5.0 10.0 0.00 0.00 0.00 85 1011.7
20260509203207 59 30 5.0 10.0 0.00 0.00 0.00 84 1011.6
20260509202718 60 33 5.0 7.0 0.00 0.00 0.00 83 1011.5
20260509202216 60 33 4.0 8.0 0.00 0.00 0.00 81 1011.4
20260509201718 60 56 4.0 8.0 0.00 0.00 0.00 80 1011.4
20260509200719 61 47 4.0 6.0 0.00 0.00 0.00 78 1011.2
20260509200205 61 122 3.0 7.0 0.00 0.00 0.00 76 1011.1
20260509195711 61 84 3.0 9.0 0.00 0.00 0.00 75 1010.9
20260509195214 61 97 4.0 9.0 0.00 0.00 0.00 74 1010.9
20260509194718 61 37 6.0 9.0 0.00 0.00 0.00 74 1010.7
20260509194212 61 68 6.0 11.0 0.00 0.00 0.00 73 1010.6
20260509193715 61 56 6.0 13.0 0.00 0.00 0.00 73 1010.6
20260509193212 62 78 6.0 15.0 0.00 0.00 0.00 73 1010.5
20260509192718 62 49 6.0 15.0 0.00 0.00 0.00 72 1010.3
20260509192212 62 80 7.0 16.0 0.00 0.00 0.00 71 1010.3
20260509191711 62 111 7.0 16.0 0.00 0.00 0.00 71 1010.1
20260509191214 62 66 8.0 15.0 0.00 0.00 0.00 69 1010.1
20260509190709 62 88 9.0 15.0 0.00 0.00 0.00 69 1010.1
20260509190216 62 59 9.0 16.0 0.00 0.00 0.00 68 1010.0
20260509185714 62 40 7.0 17.0 0.00 0.00 0.00 67 1010.0
20260509185219 62 57 9.0 17.0 0.00 0.00 0.00 66 1010.0
20260509184214 63 91 7.0 14.0 0.00 0.00 0.00 65 1010.0
20260509183709 63 102 7.0 17.0 0.00 0.00 0.00 64 1009.9
20260509183208 63 50 5.0 17.0 0.00 0.00 0.00 63 1010.0
20260509181716 64 67 5.0 10.0 0.00 0.00 0.00 59 1009.7
20260509181205 64 67 4.0 10.0 0.00 0.00 0.00 58 1009.8
20260509180715 64 16 6.0 12.0 0.00 0.00 0.00 59 1009.8
20260509180217 64 75 5.0 16.0 0.00 0.00 0.00 58 1009.9
20260509175709 64 43 6.0 16.0 0.00 0.00 0.00 58 1009.9
20260509175209 64 74 7.0 16.0 0.00 0.00 0.00 58 1010.0
20260509174708 64 46 6.0 14.0 0.00 0.00 0.00 58 1010.0
20260509174218 64 56 7.0 14.0 0.00 0.00 0.00 59 1009.9
20260509173719 64 39 7.0 12.0 0.00 0.00 0.00 58 1010.0
20260509173216 64 71 5.0 12.0 0.00 0.00 0.00 58 1010.0
20260509172217 65 57 4.0 13.0 0.00 0.00 0.00 59 1009.9
20260509170705 64 77 3.0 10.0 0.00 0.00 0.00 61 1009.9
20260509170219 65 40 6.0 10.0 0.00 0.00 0.00 63 1010.0
20260509165716 64 73 6.0 12.0 0.00 0.00 0.00 63 1010.0
20260509165211 64 74 6.0 13.0 0.00 0.00 0.00 63 1009.9
20260509164708 65 45 7.0 13.0 0.00 0.00 0.00 63 1009.9
20260509164206 65 106 6.0 14.0 0.00 0.00 0.00 63 1009.9
20260509163212 65 49 9.0 15.0 0.00 0.00 0.00 62 1009.9
20260509162714 65 45 8.0 12.0 0.00 0.00 0.00 62 1009.8
20260509162210 65 32 7.0 12.0 0.00 0.00 0.00 61 1009.9
20260509161708 65 46 5.0 17.0 0.00 0.00 0.00 62 1009.8
20260509161229 65 97 6.0 17.0 0.00 0.00 0.00 63 1009.6
20260509160214 65 28 7.0 17.0 0.00 0.00 0.00 65 1009.5
20260509155715 65 53 8.0 17.0 0.00 0.00 0.00 66 1009.5
20260509155218 65 70 8.0 17.0 0.00 0.00 0.00 65 1009.5
20260509154713 65 47 9.0 14.0 0.00 0.00 0.00 65 1009.5
20260509154220 66 67 7.0 14.0 0.00 0.00 0.00 65 1009.7
20260509152211 66 78 5.0 14.0 0.00 0.00 0.00 66 1010.2
20260509151716 66 40 6.0 14.0 0.00 0.00 0.00 66 1010.3
20260509151213 66 54 7.0 14.0 0.00 0.00 0.00 67 1010.4
20260509150719 66 68 8.0 15.0 0.00 0.00 0.00 68 1010.4
20260509150219 66 60 7.0 15.0 0.00 0.00 0.00 67 1010.5
20260509145707 66 67 8.0 19.0 0.00 0.00 0.00 67 1010.5
20260509145211 66 90 6.0 19.0 0.00 0.00 0.00 67 1010.5
20260509144705 67 32 6.0 16.0 0.00 0.00 0.00 67 1010.6
20260509144210 67 133 7.0 15.0 0.00 0.00 0.00 66 1010.6
20260509143712 67 61 6.0 20.0 0.00 0.00 0.00 66 1010.6
20260509143211 67 70 8.0 20.0 0.00 0.00 0.00 67 1010.7
20260509142217 67 52 9.0 15.0 0.00 0.00 0.00 68 1010.8
20260509141719 66 77 9.0 19.0 0.00 0.00 0.00 68 1010.8
20260509141217 67 66 8.0 19.0 0.00 0.00 0.00 67 1010.9
20260509140714 67 84 9.0 17.0 0.00 0.00 0.00 67 1011.0
20260509140215 66 80 9.0 19.0 0.00 0.00 0.00 68 1011.0
20260509135707 66 52 9.0 19.0 0.00 0.00 0.00 67 1011.0
20260509135213 66 49 10.0 19.0 0.00 0.00 0.00 68 1011.0
20260509134213 66 49 9.0 16.0 0.00 0.00 0.00 67 1011.1
20260509133712 67 59 9.0 17.0 0.00 0.00 0.00 67 1011.2
20260509133216 67 73 9.0 18.0 0.00 0.00 0.00 67 1011.1
20260509132713 67 39 10.0 19.0 0.00 0.00 0.00 66 1011.3
20260509132218 67 28 9.0 22.0 0.00 0.00 0.00 66 1011.2
20260509131744 67 8 11.0 22.0 0.00 0.00 0.00 66 1011.2
20260509131238 67 28 11.0 22.0 0.00 0.00 0.00 66 1011.1
20260509130719 67 11 10.0 22.0 0.00 0.00 0.00 65 1011.3
20260509130206 67 71 8.0 22.0 0.00 0.00 0.00 64 1011.4
20260509125217 68 15 8.0 19.0 0.00 0.00 0.00 65 1011.5
20260509124713 68 68 7.0 19.0 0.00 0.00 0.00 64 1011.4
20260509124212 69 57 8.0 19.0 0.00 0.00 0.00 62 1011.5
20260509123705 69 61 10.0 23.0 0.00 0.00 0.00 62 1011.4
20260509123207 69 74 11.0 23.0 0.00 0.00 0.00 62 1011.4
20260509122206 69 67 11.0 20.0 0.00 0.00 0.00 61 1011.3
20260509121709 68 94 9.0 23.0 0.00 0.00 0.00 62 1011.4
20260509121241 69 75 10.0 25.0 0.00 0.00 0.00 60 1011.4
20260509120738 69 59 13.0 25.0 0.00 0.00 0.00 61 1011.3
20260509120215 68 60 12.0 18.0 0.00 0.00 0.00 62 1011.4
20260509115710 68 82 8.0 20.0 0.00 0.00 0.00 61 1011.4
20260509114707 69 64 13.0 21.0 0.00 0.00 0.00 62 1011.4
20260509113210 68 63 9.0 21.0 0.00 0.00 0.00 62 1012.0
20260509112717 68 56 12.0 18.0 0.00 0.00 0.00 62 1012.0
20260509112232 68 47 7.0 18.0 0.00 0.00 0.00 62 1012.0
20260509111206 69 57 7.0 18.0 0.00 0.00 0.00 63 1011.9
20260509110208 68 46 9.0 19.0 0.00 0.00 0.00 64 1012.1
20260509105710 68 97 10.0 19.0 0.00 0.00 0.00 64 1012.2
20260509104711 68 50 10.0 20.0 0.00 0.00 0.00 65 1012.2
20260509104207 68 29 11.0 17.0 0.00 0.00 0.00 65 1012.1
20260509103708 67 60 10.0 17.0 0.00 0.00 0.00 66 1012.1
20260509103217 67 87 9.0 20.0 0.00 0.00 0.00 67 1012.1
20260509102708 67 22 9.0 20.0 0.00 0.00 0.00 66 1012.1
20260509102217 67 59 11.0 20.0 0.00 0.00 0.00 67 1012.1
20260509101715 67 47 9.0 17.0 0.00 0.00 0.00 68 1012.1
20260509100713 67 74 10.0 15.0 0.00 0.00 0.00 68 1012.3
20260509100210 67 37 9.0 15.0 0.00 0.00 0.00 68 1012.2
20260509095711 67 70 9.0 15.0 0.00 0.00 0.00 67 1012.2
20260509095213 67 30 5.0 14.0 0.00 0.00 0.00 68 1012.2
20260509094719 67 73 6.0 14.0 0.00 0.00 0.00 67 1012.3
20260509094216 67 77 7.0 16.0 0.00 0.00 0.00 68 1012.3
20260509093710 67 57 7.0 16.0 0.00 0.00 0.00 69 1012.1